{"data":{"norad_id":57388,"epoch":"2026-09-21T22:18:37.109952Z","epoch_age_seconds":84100,"freshness":"FRESH","line1":"1 57388U 23100C   26264.92959618  .00001327  00000+0  94545-4 0  9999","line2":"2 57388  99.5086 305.9065 0004663 336.4502  23.6505 15.07047762174473","mean_motion":15.07047762,"eccentricity":0.0004663,"inclination_deg":99.5086,"raan_deg":305.9065,"arg_perigee_deg":336.4502,"mean_anomaly_deg":23.6505,"bstar":9.4545e-5,"rev_number":17447,"period_min":95.551052614881,"perigee_km":541.99860722038,"apogee_km":548.45533646052,"semimajor_km":6923.3639718405,"source":"CELESTRAK","updated_at":"2026-09-22T09:00:26.164756Z"}}